Fort Eustis, VA

9:05 PM EST on November 22, 2019 (GMT -0500)
Felker Army Air Field

Weather History for KFAF - September, 2019

Change the Weather History Date:

Saturday, September 21, 2019

  Actual Average Record
Temperature  
Mean Temperature 73 °F -  
Max Temperature 84 °F 76 °F 91 °F (1998)
Min Temperature 62 °F 61 °F 51 °F (2006)
Cooling Degree Days 8    
Growing Degree Days 23 (Base 50)    
Moisture  
Dew Point 58 °F    
Average Humidity 64    
Maximum Humidity 81    
Minimum Humidity 40    
Precipitation  
Precipitation 0.00 in - - ()
Sea Level Pressure  
Sea Level Pressure 30.23 in    
Wind  
Wind Speed 5 mph ()    
Max Wind Speed 9 mph    
Max Gust Speed -    
Visibility 10.0 miles    
Events      
Averages and records for this station are not official NWS values.
T = Trace of Precipitation, MM = Missing Value Source: Averaged Metar Reports

Daily Weather History Graph

Daily Weather History Graph

Search for Another Location

Airport or City:

Astronomy

Sep. 21, 2019 Rise Set
Actual Time 6:53 AM EDT 7:05 PM EDT
Civil Twilight 6:27 AM EDT 7:31 PM EDT
Nautical Twilight 5:56 AM EDT 8:01 PM EDT
Astronomical Twilight 5:25 AM EDT 8:32 PM EDT
Moon 11:49 PM EDT (9/21) 1:48 PM EDT (9/21)
Length of Visible Light 13h 03m
Length of Day
12h 11m
Waning Gibbous, 55% of the Moon is Illuminated
Sep 21
Waning Gibbous
Sep 21
Last Quarter
Sep 28
New
Oct 5
First Quarter
Oct 13
Full

Hourly Weather History & Observations

Time (EDT) Temp. Heat Index Dew Point Humidity Pressure Visibility Wind Dir Wind Speed Gust Speed Precip Events Conditions
12:56 AM 66.0 °F - 57.9 °F 75% 30.25 in 10.0 mi SSW 9.2 mph - N/A   Clear
1:56 AM 64.6 °F - 57.2 °F 77% 30.26 in 10.0 mi South 6.9 mph - N/A   Clear
2:56 AM 64.2 °F - 57.9 °F 80% 30.26 in 10.0 mi SSW 6.9 mph - N/A   Clear
3:56 AM 63.7 °F - 57.7 °F 81% 30.25 in 10.0 mi South 3.5 mph - N/A   Clear
4:56 AM 63.3 °F - 56.7 °F 79% 30.25 in 10.0 mi SSW 5.8 mph - N/A   Clear
5:56 AM 63.0 °F - 55.2 °F 76% 30.26 in 10.0 mi SSW 3.5 mph - N/A   Clear
6:56 AM 62.8 °F - 54.3 °F 74% 30.27 in 10.0 mi SSW 3.5 mph - N/A   Clear
7:56 AM 64.6 °F - 55.8 °F 73% 30.27 in 10.0 mi Calm Calm - N/A   Clear
8:56 AM 67.6 °F - 57.0 °F 69% 30.28 in 10.0 mi SW 4.6 mph - N/A   Clear
9:56 AM 71.2 °F - 57.0 °F 61% 30.28 in 10.0 mi SSW 4.6 mph - N/A   Clear
10:56 AM 74.7 °F - 57.4 °F 55% 30.27 in 10.0 mi South 4.6 mph - N/A   Clear
11:56 AM 77.7 °F - 57.0 °F 49% 30.26 in 10.0 mi South 5.8 mph - N/A   Clear
12:56 PM 81.5 °F 81.5 °F 57.4 °F 44% 30.24 in 10.0 mi South 6.9 mph - N/A   Clear
2:56 PM 83.7 °F 83.0 °F 56.7 °F 40% 30.20 in 10.0 mi SSE 8.1 mph - N/A   Clear
3:56 PM 84.4 °F 83.7 °F 57.4 °F 40% 30.18 in 10.0 mi SSE 6.9 mph - N/A   Clear
4:56 PM 84.2 °F 83.5 °F 57.2 °F 40% 30.17 in 10.0 mi SSE 4.6 mph - N/A   Clear
5:56 PM 82.2 °F 82.6 °F 59.9 °F 47% 30.17 in 10.0 mi South 5.8 mph - N/A   Clear
6:56 PM 78.3 °F - 61.7 °F 57% 30.17 in 10.0 mi South 5.8 mph - N/A   Clear
7:56 PM 75.0 °F - 62.4 °F 65% 30.18 in 10.0 mi SSE 5.8 mph - N/A   Clear
8:56 PM 74.1 °F - 63.7 °F 70% 30.19 in 10.0 mi SSE 4.6 mph - N/A   Clear
9:56 PM 73.2 °F - 63.1 °F 71% 30.20 in 10.0 mi South 5.8 mph - N/A   Clear
10:56 PM 73.0 °F - 62.2 °F 69% 30.21 in 10.0 mi South 3.5 mph - N/A   Clear
11:56 PM 72.5 °F - 62.1 °F 70% 30.20 in 10.0 mi South 6.9 mph - N/A   Clear